Airfield :
LOGIN :

Register | Disclaimer

   EN    FR    IT 

 










Legend :    VFR   Marginal VFR   IFR   Intensive IFR   Very Intensive IFR
Visi :
Ceiling :
>= 8 km
>= 3000ft
5 to 8 km
1000 to 3000 ft
1500m to 5 km
500 to 1000 ft
800 to 1500m
200 to 500 ft
< 800m
< 200 ft
Symbols :   Thunderstorms  Fog  Heavy snow  Heavy precipitations  Wind > 20 kt
SIGMETs :     Misc.  Thunderstorms  Icing  Turbulence  Mountain Waves  Volcanic Ashes






- Airport Elevation : 228 ft
- IATA code : OPO


LPPR - Porto Fr. Sa Carneiro

CURRENT METAR :
  • 280500Z 11004KT 9999 FEW025 09/08 Q1026

EXPIRED METARs :
  • 280300Z 15004KT 9999 FEW028 09/08 Q1026
  • 280230Z VRB02KT 9999 FEW028 09/09 Q1025
  • 280200Z 03003KT 360V060 9999 VCSH FEW028 FEW025CB 08/08 Q1026

TAF TAF LPPR
Valid from the 28 at 00:00 until the 29 at 00:00 UTC


272300Z 2800/2824 VRB02KT 9999 FEW015
PROB30 2800/2806 8000 SHRA BKN012 FEW020CB
BECMG 2812/2815 32008KT SCT030
BECMG 2818/2820 VRB02KT



MET'MAP, your aeronautical weather chart ! - Copyright ORBIFLY December 2007 - Disclaimer

ORBIFLY MET'MAP TEAM :

Programming & Development : Alexandra Zaïnal
Original concept : Baudouin d'Aumeries
Technical & hardware support : Manuel Goepfert
Assistance : Marc-Olivier Méhu




SOURCES & CREDITS :

   NOAA